Terminal Aerodrome Forecast
Issued by NWS St Louis, MO

Home | Current Version | Previous Version | Text Only | Print | Product List | Glossary On
Versions: 1 2 3 4 5 6 7 8 9 10 11 12 13 14 15 16 17 18 19 20 21 22 23 24 25 26
000
FTUS43 KLSX 250500
TAFSTL
TAF
KSTL 250520Z 2506/2612 22006KT P6SM FEW040 SCT250
     FM250900 25005KT 6SM BR FEW030 SCT250
      TEMPO 2511/2513 4SM BR
     FM251500 30006KT P6SM SKC
     FM260000 VRB04KT P6SM SKC=

USA.gov is the U.S. government's official web portal to all federal, state and local government web resources and services.